Columbia County, Pennsylvania, United States
Lat: 41.04N, Lon: 76.43W
Wx Zone: PAZ053
Local Info
Past Weather Observations for Saturday, September 27, 2014

NOTE: This archive is for the closest National Weather Service station to Columbia County. Information may differ from the station used for current weather conditions.

Click here for Long-term Archive

Time Weather Temperature Dewpoint Humidity Pressure Winds Precip Visibility
23:53
Clear
Fog And Mist
54°F / 12°C 52°F / 11°C 94% 30.21 in
(1023 mb)
Calm - 5SM
22:53
Clear
Fog And Mist
54°F / 12°C 52°F / 11°C 94% 30.21 in
(1023 mb)
Calm - 6SM
21:53
Clear
55°F / 13°C 54°F / 12°C 94% 30.21 in
(1023 mb)
Calm - 8SM
20:53
Clear
57°F / 14°C 55°F / 13°C 94% 30.21 in
(1023 mb)
Calm - 10SM
19:53
Clear
61°F / 16°C 55°F / 13°C 83% 30.21 in
(1023 mb)
Calm - 10SM
18:53
Clear
63°F / 17°C 57°F / 14°C 83% 30.18 in
(1022 mb)
NNW 3.5 mph
(NNW 6 kph)
- 10SM
17:53
Clear
66°F / 19°C 57°F / 14°C 73% 30.18 in
(1022 mb)
Calm - 10SM
16:53
Clear
81°F / 27°C 55°F / 13°C 42% 30.21 in
(1023 mb)
Calm - 10SM
15:53
Clear
81°F / 27°C 52°F / 11°C 37% 30.21 in
(1023 mb)
NNW 4.6 mph
(NNW 7 kph)
- 10SM
14:53
Clear
81°F / 27°C 52°F / 11°C 37% 30.21 in
(1023 mb)
Calm - 10SM
13:53
Clear
79°F / 26°C 54°F / 12°C 42% 30.24 in
(1024 mb)
Calm - 10SM
12:53
Clear
79°F / 26°C 55°F / 13°C 45% 30.24 in
(1024 mb)
Calm - 10SM
11:53
Clear
75°F / 24°C 55°F / 13°C 50% 30.27 in
(1025 mb)
Variable 4.6 mph
(Variable 7 kph)
- 10SM
10:53
Clear
70°F / 21°C 55°F / 13°C 60% 30.27 in
(1025 mb)
Variable 3.5 mph
(Variable 6 kph)
- 10SM
09:53
Clear
66°F / 19°C 55°F / 13°C 68% 30.3 in
(1026 mb)
Calm - 10SM
08:53
Clear
61°F / 16°C 55°F / 13°C 83% 30.3 in
(1026 mb)
Calm - 10SM
08:26
Partly Cloudy
55°F / 13°C 54°F / 12°C 94% 30.3 in
(1026 mb)
Calm - 8SM
08:17
Mostly Cloudy
Fog And Mist
55°F / 13°C 54°F / 12°C 94% 30.3 in
(1026 mb)
Calm - 5SM
08:06
Mostly Cloudy
Fog And Mist
54°F / 12°C 54°F / 12°C 100% 30.3 in
(1026 mb)
Calm - 2SM
07:55
Mostly Cloudy
Fog And Mist
54°F / 12°C 52°F / 11°C 94% 30.3 in
(1026 mb)
Calm - 3SM
07:53
Mostly Cloudy
Fog And Mist
54°F / 12°C 52°F / 11°C 94% 30.3 in
(1026 mb)
Calm - 1 3/4SM
07:18
Overcast
Fog And Mist
50°F / 10°C 48°F / 9°C 94% 30.3 in
(1026 mb)
Calm - 3/4SM
07:15
Overcast
Fog And Mist
50°F / 10°C 48°F / 9°C 94% 30.3 in
(1026 mb)
Calm - 1 1/2SM
06:53
Overcast
Fog And Mist
48°F / 9°C 46°F / 8°C 94% 30.3 in
(1026 mb)
Calm - 4SM
06:32
Overcast
Fog And Mist
48°F / 9°C 46°F / 8°C 94% 30.3 in
(1026 mb)
Calm - 3SM
06:27
Overcast
Fog And Mist
48°F / 9°C 46°F / 8°C 94% 30.3 in
(1026 mb)
Calm - 1 1/4SM
06:13
Overcast
Fog And Mist
48°F / 9°C 46°F / 8°C 94% 30.3 in
(1026 mb)
Calm - 3/4SM
06:08
Overcast
Fog And Mist
48°F / 9°C 46°F / 8°C 94% 30.3 in
(1026 mb)
NW 3.5 mph
(NW 6 kph)
- 1 3/4SM
05:53
Overcast
Fog And Mist
48°F / 9°C 46°F / 8°C 94% 30.3 in
(1026 mb)
NW 3.5 mph
(NW 6 kph)
- 6SM
05:21
Mostly Cloudy
Fog And Mist
48°F / 9°C 46°F / 8°C 94% 30.27 in
(1025 mb)
NNW 3.5 mph
(NNW 6 kph)
- 6SM
05:12
Partly Cloudy
Fog And Mist
46°F / 8°C 46°F / 8°C 100% 30.27 in
(1025 mb)
NNW 4.6 mph
(NNW 7 kph)
- 6SM
04:53
Clear
Fog And Mist
46°F / 8°C 46°F / 8°C 100% 30.27 in
(1025 mb)
N 3.5 mph
(N 6 kph)
- 5SM
03:53
Clear
Fog And Mist
48°F / 9°C 46°F / 8°C 94% 30.27 in
(1025 mb)
Calm - 5SM
02:53
Clear
Fog And Mist
48°F / 9°C 46°F / 8°C 94% 30.27 in
(1025 mb)
Calm - 5SM
01:57
Clear
Fog And Mist
50°F / 10°C 48°F / 9°C 94% 30.27 in
(1025 mb)
Calm - 3SM
01:53
Clear
Fog And Mist
50°F / 10°C 48°F / 9°C 94% 30.27 in
(1025 mb)
Calm - 1 3/4SM
01:49
Clear
Fog And Mist
50°F / 10°C 48°F / 9°C 94% 30.27 in
(1025 mb)
Calm - 1 3/4SM
00:53
Clear
52°F / 11°C 48°F / 9°C 88% 30.27 in
(1025 mb)
Calm - 7SM
Time Weather Temperature Dewpoint Humidity Pressure Winds Precip Visibility


Weather for websites

WeatherForYou.com, LLC is not responsible for any damages or problems caused by this service. Current weather conditions are obtained from the closest station including government and personal stations which may have varying degrees of accuracy. Weather forecasts are derived from the NOAA NDFD. Like all things, this site belongs to Jesus Christ... He just trusts me to maintain it. If you have any questions or comments email webmaster@weatherforyou.com

Copyright © 2014, WeatherForYou.com LLC. All rights reserved.